Location: Devore Heights
(34.2372°N, 117.4156°W)
Time: 18:27:33
(UTC+00:00)

S-56A Canister/Altair - Pass Details

Date: 15 September 2024
Orbit: 636 x 2487 km, 38.9° (Epoch: 14 October)

Event Time Altitude Azimuth Distance (km) Brightness Sun altitude
Rises 05:53:32 0° 287° (WNW) 3,901 11.7 -44.6°
Reaches altitude 10° 05:55:52 10° 289° (WNW) 3,140 11.1 -45.0°
Enters shadow 06:00:01 39° 296° (WNW) 2,000 9.7 -45.5°
Maximum altitude 06:03:56 78° 16° (NNE) 1,633 - -46.0°
Drops below altitude 10° 06:16:18 10° 103° (ESE) 4,648 - -47.5°
Sets 06:20:30 0° 105° (ESE) 5,854 - -48.0°
